User: anonymous   Login
Location: Unspecified
(0.0000°N, 0.0000°E)
Time: 11:03:25
(UTC+00:00)
Language:

STARLINK-30914 - Orbit

View from above orbital plane
View from above orbital plane
View from above satellite
View from above satellite

Ground track
Ground track

The orbit is defined by the following mean orbital elements,

1 58377U          26145.61749904 +.00000000 +00000-0 +91374-4 0 00009
2 58377  53.1602   2.7307 0000684  57.6671 302.4398 15.34384113    00
Epoch (UTC): 25 May 2026 14:49:11
Eccentricity: 0.0000684
inclination: 53.1602°
perigee height: 462 km
apogee height: 463 km
right ascension of ascending node: 2.7307°
argument of perigee: 57.6671°
revolutions per day: 15.34384113
mean anomaly at epoch: 302.4398°

The dashed part of the orbit path shows where the satellite is in the earth's shadow,  

DLR